Voltar ao catálogo

STARLINK-33811

AtivoComunicaçõesVLEO
NORAD 63504·PAYLOAD·🇺🇸 United States

Lançado Apr 7, 2025 de Vandenberg Space Force Base

Loading…

Próximas Passagens (próximas 24 horas)

TLE

AtualizadoSource: CelesTrak SupGP

Época: Sep 14, 2026, 13:54 UTC

1 63504C 25071M   26257.57965278 -.00014114  00000+0 -41718-3 0  2577
2 63504  53.1580 341.0672 0001378  89.8883 166.9414 15.34383369    15

Acompanhe STARLINK-33811 em tempo real com AllMySat

Download on the App Store